Location: Yamada Observatory
(36.7980°N, 119.2990°W)
Time: 02:15:49
(UTC-08:00)

N. Korean satellite - Visible Passes

Search period start: 19 November 2017 00:00
Search period end: 29 November 2017 00:00
Orbit: 460 x 515 km, 97.2° (Epoch: 18 November)

Date Brightness Start Highest point End Pass type
(mag) Time Alt. Az. Time Alt. Az. Time Alt. Az.
19 Nov 8.4 18:31:58 10° SSW 18:35:06 31° W 18:38:18 10° NNW visible
20 Nov 9.6 06:01:27 10° NE 06:04:28 23° E 06:07:29 10° SSE visible
20 Nov 6.7 18:08:07 10° S 18:11:35 71° W 18:15:07 10° NNW visible
21 Nov 10.2 05:39:28 10° ENE 05:40:51 12° E 05:42:14 10° ESE visible
21 Nov 6.6 17:44:45 10° SSE 17:48:08 50° ENE 17:51:36 10° N visible
22 Nov 7.6 17:21:53 10° SE 17:24:46 24° ENE 17:27:41 10° NNE visible
22 Nov 9.6 18:56:05 10° SW 18:58:16 16° W 19:00:29 10° NW visible
23 Nov 8.4 18:31:29 10° SSW 18:34:39 32° W 18:37:53 10° NNW visible
24 Nov 9.5 06:01:01 10° NE 06:04:02 23° E 06:07:04 10° SSE visible
24 Nov 6.7 18:07:38 10° S 18:11:07 72° W 18:14:41 10° NNW visible
25 Nov 10.2 05:39:01 10° ENE 05:40:24 12° E 05:41:47 10° ESE visible
25 Nov 6.6 17:44:14 10° SSE 17:47:39 50° ENE 17:51:09 10° N visible
26 Nov 7.6 17:21:22 10° SE 17:24:16 24° ENE 17:27:14 10° NNE visible
26 Nov 9.6 18:55:30 10° SW 18:57:46 16° W 19:00:03 10° NW visible
27 Nov 8.4 18:30:56 10° SSW 18:34:08 32° W 18:37:24 10° NNW visible
28 Nov 9.5 06:00:31 10° NE 06:03:33 23° E 06:06:33 10° SSE visible
28 Nov 6.7 18:07:03 10° S 18:10:34 72° WSW 18:14:11 10° NNW visible
